DRAGRACER 2 (AUGURY) (46955 NORAD) Tracking and Keplerian Element Data
This shows tracking and keplerian element data for the satellite.
Feedback or suggestion? Click here.
Element | Value |
Catalog | 46955 |
Name | DRAGRACER 2 (AUGURY) |
Epoch Orbit | 942 |
Epoch Day | 21.14035994 |
Epoch Year | 2021 |
RAAN | 160.3442 |
Inclination | 97.3702 |
Eccentricity | 0.0015453 |
Argument of Perigee | 92.5956 |
Mean Anonmoly | 267.7048 |
Mean Motion | 15.2000843 |
Decay Rate | 4.81E-06 |
L1 | 1 46955U 20085AC 21021.14035994 .00000481 00000-0 25418-4 0 9992 |
L2 | 2 46955 97.3702 160.3442 0015453 92.5956 267.7048 15.20008430 9425 |
Live tracking and technical data element details for DRAGRACER 2 (AUGURY) (NORAD 46955). DRAGRACER 2 (AUGURY) can be tracked NOW for your location showing map with azimuth and elevation plus other details from your city location.
Track the satellite on the map from your city or location and see movement details for azimuth, elevation, latitude, longitude, range, height, and movement on the map or in text.
IsCatalogInMostPopularTable: catalog: 46955, numindb: 25
Update: records affected: 1
GetName: 46955 DRAGRACER 2 (AUGURY)
Hit Count: updated at: Fri, 22 Jan 2021 14:56:23 GMT